Regional Weather Roundup
Issued by NWS Mobile, AL

Home | Current Version | Previous Version | Text Only | Print | Product List | Glossary On
Versions: 1 2 3 4 5 6 7 8 9 10 11 12 13 14 15 16 17 18 19 20 21 22 23 24 25 26 27
000
ASUS44 KMOB 210013
RWRMOB
REGIONAL WEATHER ROUNDUP
NATIONAL WEATHER SERVICE MOBILE AL
700 PM CDT WED SEP 20 2017

NOTE: "FAIR" INDICATES FEW OR NO CLOUDS BELOW 12,000 FEET WITH NO
      SIGNIFICANT WEATHER AND/OR OBSTRUCTIONS TO VISIBILITY.

  * THESE STATIONS ARE PART OF THE UNIVERSITY OF SOUTH ALABAMA
    MESONET AND ARE NOT UNDER NWS OR FAA QUALITY CONTROL.

ALZ061>064-210100-
COASTAL ALABAMA

CITY           SKY/WX    TMP DP  RH WIND       PRES   REMARKS
MOBILE REG APT TSTM      72  68  87 NW8       30.01R
6HR MIN TEMP:  73; 6HR MAX TEMP:  90; 6HR PCP:  0.17;

BROOKLEY FIELD LGT RAIN  74  68  81 NW5       29.99F
6HR MIN TEMP:  74; 6HR MAX TEMP:  88; 6HR PCP:  0.37;

USA CAMPUS*    NOT AVBL
DOG RIVER*     NOT AVBL


CITY           SKY/WX    TMP DP  RH WIND       PRES   REMARKS
GULF SHORES    CLOUDY    80  76  88 N5        29.98R

$$

ALZ051>060-210100-
INTERIOR SOUTHWEST AND SOUTH CENTRAL ALABAMA

CITY           SKY/WX    TMP DP  RH WIND       PRES   REMARKS
GREENVILLE     CLOUDY    80  73  79 CALM      29.98R
6HR MIN TEMP:  80; 6HR MAX TEMP:  92;

EVERGREEN      CLOUDY    77  71  82 CALM      29.98S
6HR MIN TEMP:  77; 6HR MAX TEMP:  92;

ATMORE*          N/A    N/A N/A N/A CALM        N/A
ANDALUSIA/OPP  CLOUDY    80  75  84 CALM      29.97S
6HR MIN TEMP:  80; 6HR MAX TEMP:  94;

ANDALUSIA*       N/A     77  73  88 SW2       29.98S
FLORALA APT    NOT AVBL
FLORALA*         N/A     77  73  88 CALM      30.66S

$$

FLZ001>006-210100-
WESTERN FLORIDA PANHANDLE

CITY           SKY/WX    TMP DP  RH WIND       PRES   REMARKS
PENSACOLA      CLOUDY    83  74  74 SW5       29.98R
6HR MIN TEMP:  77; 6HR MAX TEMP:  88; 6HR PCP:  1.00;

NAS PENSACOLA  MOCLDY    81  73  76 W3        29.97R
6HR MIN TEMP:  81; 6HR MAX TEMP:  90;

MILTON         CLOUDY    77  76  96 CALM      29.98R
6HR MIN TEMP:  73; 6HR MAX TEMP:  89; 6HR PCP:  0.61;

WHTNG S FIELD  MOCLDY    80  76  87 NW3       29.98R
6HR MIN TEMP:  79; 6HR MAX TEMP:  92; 6HR PCP:  0.05;



CITY           SKY/WX    TMP DP  RH WIND       PRES   REMARKS
JAY*             N/A     73  73 100 S2        29.98S
DUKE FIELD     MOCLDY    79  74  83 CALM      29.98R
CRESTVIEW      CLOUDY    78  72  81 CALM      29.99S
6HR MIN TEMP:  78; 6HR MAX TEMP:  92;

VALPARAISO     MOCLDY    81  76  82 W3        29.97S
6HR MIN TEMP:  78; 6HR MAX TEMP:  85; 6HR PCP:  0.12;

DESTIN         CLEAR     86  73  65 VRB3      29.97R
6HR MIN TEMP:  86; 6HR MAX TEMP:  91; 6HR PCP: TRACE;


$$

MSZ076-079-210100-
INTERIOR SOUTHEAST MISSISSIPPI

CITY           SKY/WX    TMP DP  RH WIND       PRES   REMARKS
LEAKESVILLE*     N/A     81  77  89 CALM      30.00R
AGRICOLA*        N/A     73  70  88 S13       30.01R

$$

MARINE OBSERVATIONS

STATION/POSITION TIME  TEMP    WIND        PRES    WAVE
                       AIR SEA DIR/SP/G            HT/PER
                 (UTC) (F)     (DEG/KT/KT) (MB)    (FT/S)
PASCAGOULA       2348   83     250/  5/  7 1015.1R
PETIT BOIS ISLND 2348   82     210/  5/  7 1016.0R
GRAND BAY        2230   84     230/  6     1015.0F
KATRINA CUT      2330   83     240/  8     1015.2R
CEDAR POINT      2330   83     250/  8     1015.2R
E DAUPHIN ISLAND 2300   83     220/  8/ 10 1014.5S
MIDDLE BAY LIGHT 2330   83     240/ 12     1014.9R
USCG MOBILE BAY  2348   75 83  340/  7/  9 1014.9F
STATE DOCKS      2348   72 82              1015.1F
MEAHER PARK      2330   78     320/  8     1015.6R
WEEKS BAY        2245   84                 1014.0F
FORT MORGAN      2348   83     250/  8/  9   N/A
12 S ORANGE BCH  2350   83 85  240/  6/  8 1014.9R   1
PENSACOLA BAY    2348   84 85              1015.3R
64 S DAUPHIN ISL 2350   83 84  200/  2/  4 1015.2R   1
67 S FORT MORGAN 2330   81                 1015.2S

$$

SELECTED LOCATIONS ACROSS THE REGION

CITY           SKY/WX    TMP DP  RH WIND       PRES   REMARKS
NEW ORLEANS    LGT RAIN  75  72  90 CALM      29.98R
GULFPORT       CLOUDY    83  75  77 CALM      29.96S
PASCAGOULA AP  CLOUDY    81  75  82 CALM      29.98R
PASCAGOULA*      N/A     79  75  89 CALM        N/A
HATTIESBURG    CLOUDY    84  75  74 N7        29.97S
LAUREL         PTCLDY    76  71  85 NE5       29.99S
MERIDIAN       CLOUDY    76  73  91 S3        30.00R
JACKSON        NOT AVBL
MONTGOMERY     CLOUDY    83  73  72 CALM      29.97S
TROY           CLOUDY    79  76  90 CALM      29.99S
ASHFORD*         N/A     77  73  88 SW2       29.98S
DOTHAN         CLOUDY    81  77  88 CALM      30.01R
PANAMA CITY    PTCLDY    81  75  82 SW6       29.95F

$$





USA.gov is the U.S. government's official web portal to all federal, state and local government web resources and services.